When you browse on this site, cookies collect data to enhance your experience and personalize the content and advertising you see.
Visit our Privacy Policy to learn more. By continuing to use the site, you agree to this use of cookies and data.
  • In Slovakia
  • List of Countries
  • For 7 days
  • Water Temperature
  • Satellite Maps
  • Weather Map
  • Weather Widgets
  • user-avatar
    Login

    Hourly Weather La Rioja

    Today, 19 February, Tuesday

    Time Temperature Precipitation Wind Pressure Humidity
    00:00 +28°C° 0.5 mm 2 mps 712 mmHg 55%
    01:00 +28°C° 0.5 mm 2 mps 712 mmHg 54%
    02:00 +28°C° 0.5 mm 2 mps 712 mmHg 54%
    03:00 +28°C° 0.6 mm 2 mps 712 mmHg 54%
    04:00 +27°C° 0.6 mm 2 mps 712 mmHg 53%
    05:00 +27°C° 0.6 mm 2 mps 712 mmHg 52%
    06:00 +28°C° 0.3 mm 2 mps 713 mmHg 47%
    07:00 +30°C° 0.3 mm 1 mps 713 mmHg 42%
    08:00 +31°C° 0.3 mm 1 mps 714 mmHg 37%
    09:00 +32°C° 0 mm 1 mps 714 mmHg 34%
    10:00 +34°C° 0 mm 1 mps 713 mmHg 31%
    11:00 +35°C° 0 mm 1 mps 713 mmHg 28%
    12:00 +37°C° 0 mm 2 mps 713 mmHg 27%
    13:00 +38°C° 0 mm 2 mps 712 mmHg 25%
    14:00 +39°C° 0 mm 3 mps 711 mmHg 23%
    15:00 +39°C° 0 mm 3 mps 711 mmHg 23%
    16:00 +40°C° 0 mm 3 mps 710 mmHg 23%
    17:00 +40°C° 0 mm 3 mps 709 mmHg 22%
    18:00 +37°C° 0.1 mm 3 mps 710 mmHg 26%
    19:00 +35°C° 0.1 mm 2 mps 710 mmHg 30%
    20:00 +32°C° 0.1 mm 2 mps 710 mmHg 35%
    21:00 +31°C° 0.1 mm 2 mps 711 mmHg 38%
    22:00 +30°C° 0.1 mm 2 mps 711 mmHg 41%
    23:00 +29°C° 0.1 mm 2 mps 712 mmHg 44%

    Tomorrow, 20 February, Wednesday

    Time Temperature Precipitation Wind Pressure Humidity
    00:00 +28°C° 0.1 mm 2 mps 712 mmHg 43%
    01:00 +28°C° 0.1 mm 2 mps 712 mmHg 42%
    02:00 +28°C° 0.1 mm 2 mps 712 mmHg 41%
    03:00 +27°C° 0 mm 2 mps 711 mmHg 41%
    04:00 +27°C° 0 mm 2 mps 711 mmHg 41%
    05:00 +26°C° 0 mm 1 mps 711 mmHg 41%
    06:00 +28°C° 0 mm 1 mps 711 mmHg 37%
    07:00 +30°C° 0 mm 1 mps 712 mmHg 33%
    08:00 +32°C° 0 mm 1 mps 712 mmHg 29%
    09:00 +33°C° 0 mm 1 mps 712 mmHg 28%
    10:00 +36°C° 0 mm 2 mps 712 mmHg 26%
    11:00 +37°C° 0 mm 2 mps 712 mmHg 24%
    12:00 +38°C° 0 mm 3 mps 711 mmHg 23%
    13:00 +40°C° 0 mm 3 mps 710 mmHg 21%
    14:00 +42°C° 0 mm 4 mps 709 mmHg 19%
    15:00 +42°C° 0 mm 4 mps 709 mmHg 19%
    16:00 +42°C° 0 mm 4 mps 708 mmHg 18%
    17:00 +43°C° 0 mm 5 mps 708 mmHg 18%
    18:00 +40°C° 0 mm 4 mps 708 mmHg 24%
    19:00 +36°C° 0 mm 3 mps 708 mmHg 30%
    20:00 +34°C° 0 mm 2 mps 708 mmHg 37%
    21:00 +31°C° 0 mm 2 mps 709 mmHg 40%
    22:00 +30°C° 0 mm 1 mps 709 mmHg 43%
    23:00 +29°C° 0 mm 1 mps 710 mmHg 46%

    Day after tomorrow, 21 February, Thursday

    Time Temperature Precipitation Wind Pressure Humidity
    00:00 +29°C° 0 mm 1 mps 709 mmHg 45%
    01:00 +29°C° 0 mm 1 mps 709 mmHg 43%
    02:00 +29°C° 0 mm 2 mps 709 mmHg 42%
    03:00 +28°C° 0 mm 1 mps 709 mmHg 43%
    04:00 +27°C° 0 mm 1 mps 709 mmHg 43%
    05:00 +27°C° 0 mm 1 mps 709 mmHg 44%
    06:00 +29°C° 0 mm 1 mps 710 mmHg 40%
    07:00 +29°C° 0 mm 0 mps 710 mmHg 35%
    08:00 +31°C° 0 mm 0 mps 711 mmHg 30%
    09:00 +35°C° 0 mm 1 mps 711 mmHg 28%
    10:00 +36°C° 0 mm 1 mps 711 mmHg 26%
    11:00 +39°C° 0 mm 2 mps 712 mmHg 24%
    12:00 +40°C° 0 mm 2 mps 711 mmHg 23%
    13:00 +42°C° 0 mm 3 mps 711 mmHg 22%
    14:00 +43°C° 0 mm 3 mps 710 mmHg 21%
    15:00 +43°C° 0 mm 3 mps 710 mmHg 21%
    16:00 +43°C° 0 mm 3 mps 709 mmHg 21%
    17:00 +43°C° 0 mm 3 mps 709 mmHg 21%
    18:00 +39°C° 0 mm 2 mps 709 mmHg 25%
    19:00 +37°C° 0 mm 2 mps 710 mmHg 28%
    20:00 +35°C° 0 mm 2 mps 710 mmHg 31%
    21:00 +34°C° 0 mm 2 mps 711 mmHg 34%
    22:00 +32°C° 0 mm 2 mps 711 mmHg 37%
    23:00 +31°C° 0 mm 2 mps 711 mmHg 39%

    22 February, Friday

    Time Temperature Precipitation Wind Pressure Humidity
    00:00 +31°C° 0 mm 2 mps 711 mmHg 39%
    01:00 +31°C° 0 mm 2 mps 711 mmHg 38%
    02:00 +31°C° 0 mm 3 mps 711 mmHg 37%
    03:00 +30°C° 0 mm 2 mps 711 mmHg 36%
    04:00 +29°C° 0 mm 2 mps 711 mmHg 35%
    05:00 +29°C° 0 mm 2 mps 710 mmHg 34%
    06:00 +31°C° 0 mm 2 mps 711 mmHg 30%
    07:00 +34°C° 0 mm 2 mps 712 mmHg 26%
    08:00 +36°C° 0 mm 2 mps 713 mmHg 22%
    09:00 +37°C° 0 mm 2 mps 713 mmHg 22%
    10:00 +38°C° 0 mm 3 mps 713 mmHg 23%
    11:00 +39°C° 0 mm 3 mps 713 mmHg 23%
    12:00 +41°C° 0 mm 4 mps 712 mmHg 24%
    13:00 +42°C° 0 mm 4 mps 711 mmHg 24%
    14:00 +43°C° 0 mm 4 mps 711 mmHg 25%
    15:00 +43°C° 0 mm 4 mps 710 mmHg 25%
    16:00 +43°C° 0 mm 4 mps 710 mmHg 25%
    17:00 +43°C° 0 mm 4 mps 709 mmHg 26%
    18:00 +40°C° 0 mm 3 mps 710 mmHg 29%
    19:00 +38°C° 0 mm 3 mps 710 mmHg 32%
    20:00 +36°C° 0 mm 3 mps 711 mmHg 35%
    21:00 +35°C° 0 mm 3 mps 711 mmHg 38%
    22:00 +34°C° 0 mm 4 mps 712 mmHg 40%
    23:00 +33°C° 0 mm 4 mps 712 mmHg 43%

    23 February, Saturday

    Time Temperature Precipitation Wind Pressure Humidity
    00:00 +33°C° 0 mm 4 mps 712 mmHg 43%
    01:00 +33°C° 0 mm 4 mps 712 mmHg 44%
    02:00 +32°C° 0 mm 4 mps 711 mmHg 45%
    03:00 +30°C° 0 mm 4 mps 711 mmHg 49%
    04:00 +29°C° 0 mm 4 mps 711 mmHg 54%
    05:00 +29°C° 0 mm 4 mps 710 mmHg 59%
    06:00 +29°C° 0 mm 3 mps 711 mmHg 59%
    07:00 +29°C° 0 mm 3 mps 711 mmHg 60%
    08:00 +30°C° 0 mm 3 mps 711 mmHg 60%
    09:00 +31°C° 0 mm 3 mps 711 mmHg 56%
    10:00 +34°C° 0 mm 3 mps 710 mmHg 52%
    11:00 +35°C° 0 mm 3 mps 710 mmHg 48%
    12:00 +36°C° 0 mm 3 mps 709 mmHg 44%
    13:00 +38°C° 0 mm 3 mps 708 mmHg 41%
    14:00 +39°C° 0 mm 3 mps 707 mmHg 37%
    15:00 +39°C° 0 mm 3 mps 706 mmHg 36%
    16:00 +39°C° 0 mm 3 mps 706 mmHg 35%
    17:00 +40°C° 0 mm 3 mps 705 mmHg 34%
    18:00 +38°C° 0 mm 3 mps 706 mmHg 36%
    19:00 +37°C° 0 mm 2 mps 706 mmHg 38%
    20:00 +35°C° 0 mm 2 mps 707 mmHg 41%
    21:00 +34°C° 0 mm 2 mps 708 mmHg 43%
    22:00 +34°C° 0 mm 2 mps 708 mmHg 46%
    23:00 +32°C° 0 mm 2 mps 709 mmHg 49%

    24 February, Sunday

    Time Temperature Precipitation Wind Pressure Humidity
    00:00 +31°C° 0.1 mm 2 mps 708 mmHg 51%
    01:00 +31°C° 0.1 mm 2 mps 708 mmHg 54%
    02:00 +30°C° 0.1 mm 2 mps 708 mmHg 56%
    03:00 +30°C° 0 mm 2 mps 708 mmHg 57%
    04:00 +29°C° 0 mm 2 mps 708 mmHg 59%
    05:00 +29°C° 0 mm 3 mps 708 mmHg 60%
    06:00 +29°C° 0 mm 3 mps 708 mmHg 60%
    07:00 +30°C° 0 mm 3 mps 709 mmHg 61%
    08:00 +30°C° 0 mm 3 mps 709 mmHg 61%
    09:00 +31°C° 0 mm 3 mps 709 mmHg 57%
    10:00 +34°C° 0 mm 3 mps 709 mmHg 54%
    11:00 +35°C° 0 mm 3 mps 709 mmHg 50%
    12:00 +36°C° 0 mm 3 mps 709 mmHg 47%
    13:00 +37°C° 0 mm 4 mps 709 mmHg 43%
    14:00 +38°C° 0 mm 4 mps 708 mmHg 40%
    15:00 +38°C° 0 mm 4 mps 708 mmHg 40%
    16:00 +38°C° 0 mm 4 mps 708 mmHg 41%
    17:00 +37°C° 0 mm 5 mps 708 mmHg 41%
    18:00 +36°C° 0.6 mm 4 mps 709 mmHg 47%
    19:00 +34°C° 0.6 mm 3 mps 710 mmHg 52%
    20:00 +32°C° 0.6 mm 2 mps 710 mmHg 58%
    21:00 +31°C° 3.2 mm 2 mps 711 mmHg 63%
    22:00 +30°C° 3.2 mm 2 mps 712 mmHg 68%
    23:00 +29°C° 3.2 mm 2 mps 712 mmHg 73%
    Show more